Location: Gloden
(48.4833°N, 15.3167°E)
Time: 03:31:34
(UTC+00:00)

FENGYUN 3A - Pass Details

Date: 15 December 2019
Orbit: 823 x 837 km, 98.4° (Epoch: 25 January)

Event Time Altitude Azimuth Distance (km) Brightness Sun altitude
Rises 05:28:52 0° 7° (N) 3,379 6.7 -11.7°
Reaches altitude 10° 05:31:23 10° 359° (N) 2,439 5.9 -11.3°
Maximum altitude 05:36:13 35° 296° (WNW) 1,319 4.2 -10.5°
Drops below altitude 10° 05:41:01 10° 232° (SW) 2,420 5.8 -9.8°
Sets 05:43:31 0° 224° (SW) 3,349 6.6 -9.4°
